Location: Chuathbaluk
(61.5726°N, 159.2454°W)
Time: 22:54:25
(UTC+00:00)

Transit 4A - Pass Details

Date: 26 November 2020
Orbit: 864 x 981 km, 66.8° (Epoch: 19 January)

Event Time Altitude Azimuth Distance (km) Brightness Sun altitude
Rises 04:15:25 0° 312° (NW) 3,695 11.6 -17.3°
Reaches altitude 10° 04:18:17 10° 302° (WNW) 2,739 11.0 -17.7°
Maximum altitude 04:23:45 31° 244° (WSW) 1,641 9.9 -18.3°
Drops below altitude 10° 04:29:07 10° 185° (S) 2,682 10.5 -18.9°
Sets 04:31:54 0° 175° (S) 3,607 11.0 -19.3°
